Regional Weather Roundup
Issued by NWS

Home | Current Version | Previous Version | Graphics & Text | Print | Product List | Glossary On
Versions: 1 2 3 4 5 6 7 8 9 10 11 12 13 14 15 16 17 18 19 20 21 22 23 24 25 26 27 28 29 30 31 32 33 34 35 36 37 38 39 40 41 42 43 44 45 46 47 48 49 50
000
ASUS43 KMKX 281100
RWRWI

WISCONSIN REGIONAL WEATHER ROUNDUP
NATIONAL WEATHER SERVICE MILWAUKEE/SULLIVAN WI
600 AM CDT FRI AUG 28 2015

NOTE: "FAIR" INDICATES FEW OR NO CLOUDS BELOW 12,000 FEET WITH NO
SIGNIFICANT WEATHER AND/OR OBSTRUCTIONS TO VISIBILITY.

WIZ001-002-006>008-014>016-023>028-281200-
NORTHWEST WISCONSIN

CITY           SKY/WX    TMP DP  RH WIND       PRES   REMARKS
SUPERIOR ARPT  CLOUDY    54  53  96 CALM      29.97F
ASHLAND        CLOUDY    63  60  90 S6        29.99S
HAYWARD        CLEAR     59  57  93 S6        30.02S
SIREN          CLEAR     62  59  90 SW8       30.00S
CUMBERLAND     PTCLDY    55  54  94 CALM      30.01F
RICE LAKE      PTCLDY    57  55  94 CALM      30.03F
CHETEK         PTCLDY   N/A N/A N/A CALM      30.03S
LADYSMITH      PTCLDY    59  57  94 S3        30.05F
EAU CLAIRE     NOT AVBL
MENOMONIE      CLOUDY    59  58  96 E5        30.01F
NEW RICHMOND   MOCLDY    59  58  97 CALM      30.01S
OSCEOLA        PTCLDY    58  58 100 SE5       30.02F
$$

WIZ003>005-009-010-017-018-281200-
NORTH CENTRAL WISCONSIN

CITY           SKY/WX    TMP DP  RH WIND       PRES   REMARKS
MANITOWISH WTR MOCLDY    58  58 100 S7        30.04F
ARBOR VITAE    PTCLDY    59  57  92 S3        30.06S
WOODRUFF       PTCLDY    59  57  92 S3        30.06S
RHINELANDER    MOCLDY    60  57  89 SW9       30.08S
EAGLE RIVER    MOCLDY    58  57  97 CALM      30.06S
LAND O LAKES   MOCLDY    56  56  98 CALM      30.06F
PHILLIPS       PTCLDY    57  57  97 S5        30.04S
TOMAHAWK       MOCLDY    55  54  95 CALM      30.08S
MEDFORD        MOCLDY    58  57  96 S8        30.07S
MERRILL        MOCLDY    59  58  96 S5        30.09S
$$

WIZ029-030-035-036-043>047-281200-
CENTRAL WISCONSIN

CITY           SKY/WX    TMP DP  RH WIND       PRES   REMARKS
WAUSAU         MOCLDY    60  58  92 SE6       30.07F
MOSINEE        PTCLDY    57  57 100 S7        30.09F
MARSHFIELD     MOCLDY    56  53  90 S6        30.07F
STEVENS POINT  MOCLDY    56  55  95 S5        30.10S
WAUPACA        MOCLDY    58  57  97 CALM      30.11R
WAUTOMA        NOT AVBL
WISC RAPIDS    MOCLDY    58  55  90 S6        30.10F
CAMP DOUGLAS   NOT AVBL
$$

WIZ011>013-019>022-031-037>040-048>050-281200-
NORTHEAST WISCONSIN

CITY           SKY/WX    TMP DP  RH WIND       PRES   REMARKS
ANTIGO         MOCLDY    57  56  97 SW5       30.10R
SHAWANO        PTCLDY    59  57  93 CALM      30.10R
OCONTO         PTCLDY    56  56 100 CALM      30.09R
STURGEON BAY   PTCLDY    55  50  82 S7        30.11S
GREEN BAY      MOCLDY    56  54  93 SW3       30.11R
MANITOWOC      NOT AVBL
APPLETON       MOCLDY    57  54  88 VRB6      30.10R
CLINTONVILLE   MOCLDY    55  55 100 CALM      30.10S
OSHKOSH        PTCLDY    56  52  86 S5        30.11R
$$

WIZ032>034-041-042-053>061-281200-
SOUTHWEST WISCONSIN

CITY           SKY/WX    TMP DP  RH WIND       PRES   REMARKS
LA CROSSE      CLOUDY    65  59  81 S12       30.04F
SPARTA         CLOUDY    62  58  86 CALM      30.07F
VIROQUA        CLOUDY    61  61 100 SE5       30.08F
BOSCOBEL       CLOUDY    60  58  92 NE3       30.09S
PRAIRIE DU CHI CLOUDY    64  58  82 E5        30.07S
PLATTEVILLE    CLOUDY    60  59  96 CALM      30.10F
$$

WIZ056-057-062-063-064-067-068-281200-
SOUTH CENTRAL WISCONSIN

CITY           SKY/WX    TMP DP  RH WIND       PRES   REMARKS
REEDSBURG      MOCLDY    58  56  95 CALM      30.09F
BARABOO/DELLS  MOCLDY    57  54  89 CALM      30.10S
LONE ROCK      NOT AVBL
MINERAL POINT  CLOUDY    61  59  94 SE3       30.10F
MADISON        MOCLDY    60  55  83 S7        30.11S
MIDDLETON      PTCLDY    58  56  92 CALM      30.11S
WATERTOWN      PTCLDY    52  52 100 CALM      30.11R
MONROE         CLOUDY    59  55  88 S6        30.11S
JANESVILLE     CLOUDY    59  55  88 CALM      30.11R FOG
$$

WIZ051-052-058>065-066-070>072-281200-
SOUTHEAST WISCONSIN

CITY           SKY/WX    TMP DP  RH WIND       PRES   REMARKS
MILWAUKEE      PTCLDY    59  55  87 CALM      30.12S
WAUKESHA       CLEAR     55  54  94 CALM      30.14R
MILWAUKEE/TIMM CLEAR     55  52  88 S3        30.13R FOG
RACINE         CLEAR     59  56  89 SW5       30.14R
BURLINGTON     PTCLDY    49  48  99 CALM      30.12S FOG
KENOSHA        FOG       53  52  96 CALM      30.12S VSB 3/4
FOND DU LAC    PTCLDY    53  52  96 CALM      30.13R
SHEBOYGAN      PTCLDY    51  50  96 CALM      30.13R
WEST BEND      CLEAR     54  52  94 CALM      30.12R
JUNEAU         PTCLDY    54  51  91 CALM      30.13R
$$

LSZ147-162-281200-
LAKE SUPERIOR

STATION/POSITION TIME  TEMP    WIND        PRES    WAVE
                       AIR SEA DIR/SP/G            HT/PER
                 (UTC) (F)     (DEG/KT/KT) (MB)    (FT/S)
W MID LAKE BUOY  0950   57 55  200/  6/  6 1015.3S   0
DEVILS ISLAND    1000   58     210/  4/  5 1015.3F
PORT WING        1040   56     160/  2/  2 1015.2S
SAXON HARBOR     1040   63     200/  1/  5 1014.9F
$$

LMZ867-665-643>646-281200-
LAKE MICHIGAN

STATION/POSITION TIME  TEMP    WIND        PRES    WAVE
                       AIR SEA DIR/SP/G            HT/PER
                 (UTC) (F)     (DEG/KT/KT) (MB)    (FT/S)
CHAMBERS ISLAND  1000   60     180/  3/  7 1018.3F
S GREEN BAY BUOY 1000   63     190/ 10/ 14 1020.0S
N MID LAKE BUOY  0950   63 64  210/ 17/ 21 1018.4S   3/ 4
NORTHPORT PIER   1000   60     170/  4/  8 1018.3F
SISTER BAY       0849   61     190/  7/  9   N/A
ALGOMA LAKESHORE 1014             CALM       N/A
KEWAUNEE LAKESHO 1000   49     160/  2/  3 1018.3S
SHEBOYGAN LAKESH 1000   50     180/  6/  7 1020.0R
PORT WASHINGTON  1000   51      CALM  /  2 1020.3S
ATWATER BUOY     1000   51 47  150/  2/  2 1020.8F
MILWAUKEE LAKESH 1000   55     110/  1/  1   N/A
S MID LAKE BUOY  0950   67 67  170/ 12/ 14 1019.5F   1/ 3
KENOSHA   LAKESH 1000   62     190/  6/  8 1019.3S
$$

TC  - TEMPERATURE IN CELSIUS
VSB - VISIBILITY IN STATUTE MILES
WCI - WIND CHILL INDEX
HX  - HEAT INDEX



USA.gov is the U.S. government's official web portal to all federal, state and local government web resources and services.